Find Starlink 36905

NORAD ID: 68176 Int'l Des: 2026-050 Owner: SPXS Country: US Constellation: starlink operational
LEOCIRCULAR

Live Position

Loading 3D Globe...

About Starlink 36905

Description loading...

Upcoming Passes

Passes for default location (London). Set your location on the main map for personalized predictions.

Altitude History

Loading altitude history...

Two-Line Element Set

1 68176U 26050K 26121.12799499 .00040737 00000-0 93996-3 0 9993
2 68176 53.1614 23.7449 0001326 97.4913 262.6244 15.42180105 8702
Epoch: May 1, 2026 • Age: 11 hours

Current Status

Altitude 442.9 km
Velocity 7.65 km/s
Sub-Earth Point 41.71°N, 9.38°W
Launch Date Mar 14, 2026
Age 0.1 years
Type internet

Technical Details

Classification Payload
Mass 575.00 kg
Dry Mass 530.00 kg
Total Mass 575.00 kg
Length 0.30 m
Diameter 4.10 m
Span 29.00 m
Shape Box + pan
Manufacturer SPXS
Bus Type Starlink V2MO
Phase Status In Orbit
Owner/State SPXS/US

Most Searched